This is the latest recevied weather packets stored in our database for station/object W4FXD. If no packets are shown the sender has not sent any weather packets the latest 10 day(s).
| Time | Temp. | Humidity | Pressure | Rain* | Wind** | Luminosity | Snow |
|---|---|---|---|---|---|---|---|
| 1777929937 | 23.89° C | 45% | 1012.4 hPa | 0 mm | - | 49 W/m² | - |
| 1777929635 | 23.89° C | 45% | 1012.6 hPa | 0 mm | - | 58 W/m² | - |
| 1777929331 | 23.89° C | 45% | 1012.6 hPa | 0 mm | - | 47 W/m² | - |
| 1777929028 | 23.89° C | 46% | 1012.7 hPa | 0 mm | - | 49 W/m² | - |
| 1777928725 | 23.89° C | 44% | 1012.3 hPa | 0 mm | - | 49 W/m² | - |
| 1777928422 | 23.89° C | 46% | 1012.7 hPa | 0 mm | - | 49 W/m² | - |
| 1777928120 | 23.89° C | 47% | 1012.7 hPa | 0 mm | - | 50 W/m² | - |
| 1777927818 | 23.89° C | 50% | 1012.9 hPa | 0 mm | - | 57 W/m² | - |
| 1777927515 | 23.89° C | 51% | 1013.3 hPa | 0 mm | - | 60 W/m² | - |
| 1777927214 | 23.89° C | 51% | 1013 hPa | 0 mm | - | 55 W/m² | - |
| 1777926912 | 23.89° C | 51% | 1013.3 hPa | 0 mm | - | 53 W/m² | - |
| 1777926609 | 23.89° C | 50% | 1013.3 hPa | 0 mm | - | 58 W/m² | - |
| 1777926304 | 23.89° C | 50% | 1013 hPa | 0 mm | - | 56 W/m² | - |
| 1777926001 | 23.89° C | 50% | 1013.2 hPa | 0 mm | - | 76 W/m² | - |
| 1777925698 | 23.33° C | 51% | 1013 hPa | 0 mm | - | 57 W/m² | - |
| 1777925396 | 23.33° C | 51% | 1013.5 hPa | 0 mm | - | 61 W/m² | - |
| 1777925093 | 23.33° C | 51% | 1013.4 hPa | 0 mm | - | 61 W/m² | - |
| 1777924789 | 23.33° C | 51% | 1013.4 hPa | 0 mm | - | 61 W/m² | - |
| 1777924485 | 23.33° C | 53% | 1013.6 hPa | 0 mm | - | 65 W/m² | - |
| 1777924182 | 23.33° C | 52% | 1013.7 hPa | 0 mm | - | 72 W/m² | - |
| 1777923878 | 23.33° C | 52% | 1013.7 hPa | 0 mm | - | 66 W/m² | - |
| 1777923574 | 23.33° C | 52% | 1014 hPa | 0 mm | - | 77 W/m² | - |
| 1777923272 | 23.33° C | 52% | 1013.9 hPa | 0 mm | - | 214 W/m² | - |
| 1777922970 | 23.33° C | 53% | 1013.9 hPa | 0 mm | - | 86 W/m² | - |
| 1777922667 | 23.33° C | 53% | 1014 hPa | 0 mm | - | 79 W/m² | - |
* Rain latest hour (hover to see other rain measurements)
** Current wind speed in m/s (hover to see current wind gust speed)